Location: Estherville
(43.4020°N, 94.8330°W)
Time: 13:13:59
(UTC-05:00)

OTV 5 (USA 277) - Visible Passes

Search period start: 19 April 2019 00:00
Search period end: 29 April 2019 00:00
Orbit: 310 x 325 km, 54.5° (Epoch: 16 April)

Date Brightness Start Highest point End Pass type
(mag) Time Alt. Az. Time Alt. Az. Time Alt. Az.
19 Apr ? 04:38:29 10° NNW 04:40:21 17° NNE 04:42:12 10° ENE visible
20 Apr ? 04:52:53 10° NW 04:55:19 30° NNE 04:57:44 10° E visible
21 Apr ? 03:36:14 12° NE 03:36:14 12° NE 03:36:53 10° NE visible
21 Apr ? 05:07:28 10° NW 05:10:09 77° NE 05:12:48 10° SE visible
22 Apr ? 03:51:41 16° ENE 03:51:41 16° ENE 03:52:37 10° E visible
22 Apr ? 05:22:41 12° WNW 05:24:50 34° SW 05:27:17 10° SSE visible
22 Apr ? 21:42:55 10° SSW 21:43:38 16° SSW 21:43:38 16° SSW visible
23 Apr ? 05:39:02 13° WSW 05:39:23 13° SW 05:40:44 10° SSW visible
23 Apr ? 21:57:30 10° WSW 22:00:12 67° NW 22:00:42 51° NNE visible
24 Apr ? 20:38:29 10° S 20:40:47 24° SE 20:43:04 10° ENE visible
24 Apr ? 22:12:37 10° W 22:15:03 28° NNW 22:16:50 15° NNE visible
25 Apr ? 20:52:42 10° SW 20:55:25 72° SE 20:58:08 10° NE visible
25 Apr ? 22:28:13 10° WNW 22:30:02 16° NNW 22:31:51 10° NNE visible
26 Apr ? 21:07:35 10° WSW 21:10:12 41° NNW 21:12:48 10° NE visible
26 Apr ? 22:44:15 10° NNW 22:45:07 11° NNW 22:45:58 10° N visible
27 Apr ? 21:22:57 10° WNW 21:25:07 21° NNW 21:27:17 10° NNE visible
28 Apr ? 21:38:45 10° NW 21:40:09 13° NNW 21:41:33 10° NNE visible
